Probability
0 1 3 5 6 7 8 8 11 15 14 11 10 9 9 10 9 7 7 8 7 6 5 5 6 6 6 6 6 3 1 2 3 3 3 2 1 2 3 3 3 3 3
0 2 4 6 7 9 10 11 13 16 15 13 12 11 11 11 10 9 8 7 7 8 7 6 6 6 6 6 6 3 1 1 2 3 3 2 1 1 3 4 4 4 4
1 2 4 6 8 10 13 15 16 17 16 15 14 13 13 12 12 11 9 8 8 9 9 8 7 6 6 6 5 3 1 1 2 2 2 2 1 1 3 4 5 4 4
3 3 3 5 8 11 16 19 18 18 17 16 15 14 13 13 13 12 11 10 9 8 8 8 7 6 5 4 3 3 3 2 2 2 2 2 2 3 4 4 4 4 4
5 4 5 6 10 14 18 21 20 18 18 17 16 14 13 13 13 13 13 13 11 8 7 7 6 6 5 4 3 3 3 3 3 4 4 4 3 4 4 4 3 3 3
6 7 8 10 13 17 21 24 22 19 19 20 19 16 14 14 14 14 14 14 13 9 6 5 6 6 6 5 4 3 3 3 4 5 5 4 3 3 3 2 3 3 3
8 9 11 13 15 17 22 24 22 20 22 23 22 19 17 16 15 15 14 16 15 11 7 6 6 6 6 6 4 3 3 3 3 4 4 3 2 1 1 1 2 2 2
9 10 11 13 14 17 20 22 22 22 23 24 23 20 18 17 16 15 14 14 14 11 9 9 8 7 6 6 4 3 3 3 2 2 2 2 2 1 0 0 1 1 1
8 8 10 11 13 16 19 20 21 21 21 21 20 17 15 14 14 13 12 11 11 11 10 9 8 7 6 5 3 2 2 1 1 0 1 2 2 2 1 0 0 0 0
5 5 6 8 10 12 16 17 17 17 16 16 14 12 11 10 10 10 8 8 8 8 9 8 7 6 5 4 2 1 1 0 0 0 0 1 1 1 1 1 1 0 0
2 2 2 4 5 8 11 13 13 13 12 11 10 9 8 7 7 7 7 6 6 7 7 7 6 5 4 3 2 1 1 0 0 0 0 0 0 0 1 3 2 1 1
0 0 0 1 2 4 6 8 10 11 11 9 7 6 5 5 5 5 6 6 6 6 6 5 4 4 4 2 1 1 2 1 0 0 0 0 0 0 1 3 3 2 2
0 0 0 0 1 3 4 6 8 9 9 8 5 4 3 3 3 4 5 5 6 5 4 4 4 4 3 1 1 1 2 1 0 0 0 0 0 0 0 1 2 2 2
0 0 0 0 1 2 4 6 7 7 7 6 4 3 3 3 3 4 4 5 5 4 3 4 4 4 3 1 0 1 1 0 0 0 0 0 0 0 0 0 1 1 1
0 0 0 0 0 1 3 5 6 5 5 4 3 3 3 3 3 3 4 4 4 3 3 3 4 4 3 2 0 0 0 0 0 0 0 0 0 0 0 0 0 0 1
0 0 0 0 0 0 1 3 4 4 3 3 3 3 3 3 3 3 3 3 3 3 3 3 3 2 2 1 0 0 0 0 0 0 0 0 0 0 0 0 0 0 0
0 0 0 0 0 0 1 2 3 3 2 2 2 3 3 3 3 3 3 3 3 3 3 2 1 1 1 0 0 0 0 0 0 0 0 0 0 0 0 0 0 0 0
0 0 0 0 0 0 1 3 3 2 1 0 1 3 3 3 2 1 1 3 3 3 3 1 0 0 0 0 0 0 0 0 0 0 0 0 0 0 0 0 0 0 0
0 0 0 0 0 1 2 3 3 1 0 0 1 2 2 2 1 1 1 2 3 3 2 1 0 0 0 0 0 0 0 0 0 0 0 0 0 0 0 0 0 0 0
0 0 0 0 1 2 3 3 2 1 0 0 0 1 1 1 1 1 1 2 2 1 1 0 0 0 0 0 0 0 0 0 0 0 0 0 0 0 0 0 0 0 0
0 0 0 0 1 2 3 3 2 1 0 0 0 0 1 1 1 0 0 1 1 0 0 0 0 0 0 0 0 0 0 0 0 0 0 0 0 0 0 0 0 0 0
0 0 0 0 0 1 1 2 1 0 0 0 0 0 1 1 0 0 0 0 0 0 0 0 0 0 0 0 0 0 0 0 0 0 0 0 0 0 0 0 0 0 0
1 1 2 1 0 0 0 0 0 0 0 0 0 0 0 0 0 0 0 0 0 0 0 0 0 0 0 0 0 0 0 0 0 0 0 0 0 0 0 0 0 0 0
2 2 2 1 0 0 0 0 0 0 0 0 0 0 0 0 0 0 0 0 0 0 0 0 0 0 0 0 0 0 0 0 0 0 0 0 0 0 0 0 0 0 0
2 1 1 1 1 1 1 0 0 0 0 0 0 0 0 0 0 0 0 0 0 0 0 0 0 0 0 0 0 0 0 0 0 0 0 0 0 0 0 0 0 0 0
1 0 0 1 1 1 1 0 0 0 0 0 0 0 0 0 0 0 0 0 0 0 0 0 0 0 0 0 0 0 0 0 0 0 0 0 0 0 0 0 0 0 0
Wind_Speed
6 5 6 6 6 6 6 7 7 6 6 4 4 4 3 3 3 3 4 4 4 4 4 3 3 3 3 4 3 2 2 1 1 1 1 1 1 2 2 2 2 2 3
4 5 6 6 7 7 7 7 7 7 7 5 5 3 3 2 2 2 3 4 4 4 4 4 4 4 3 3 3 3 2 1 2 2 1 1 2 2 2 2 2 3 2
8 7 7 8 7 8 8 8 8 7 6 5 3 3 2 1 1 2 2 3 4 4 4 5 4 4 4 4 4 4 4 3 2 1 3 2 3 1 2 2 2 2 2
6 6 7 7 8 8 7 6 7 7 6 6 6 6 5 4 4 3 3 2 3 4 4 4 4 4 4 4 4 4 3 4 3 2 2 2 2 2 1 1 2 2 3
6 7 8 8 7 6 6 6 6 6 6 7 7 6 4 3 2 2 3 2 2 3 3 4 4 4 3 4 3 4 4 4 4 3 2 2 1 1 2 2 2 2 2
5 5 5 4 5 5 5 6 6 6 6 6 6 6 6 4 4 3 3 3 2 2 2 3 3 3 3 3 4 4 5 4 4 4 3 3 3 3 3 3 2 2 2
5 5 5 6 6 6 6 6 6 6 5 6 5 5 5 5 5 4 4 3 2 2 3 3 3 3 4 4 4 4 4 5 5 5 4 4 3 3 3 3 2 2 2
4 5 6 6 6 7 6 6 6 6 5 5 5 5 5 4 3 4 3 4 3 4 4 3 3 4 4 4 4 3 4 4 5 5 5 4 4 4 3 3 3 2 2
3 4 4 5 5 6 6 6 6 5 5 5 4 4 4 4 3 3 3 3 2 2 3 3 3 3 3 4 4 3 4 4 4 5 5 4 4 4 4 4 4 4 3
3 3 3 4 5 5 5 5 5 5 4 4 4 4 4 4 3 3 3 3 3 2 2 2 2 2 3 3 4 3 4 4 4 4 5 5 4 4 4 4 4 4 4
3 3 3 3 3 3 4 4 4 4 4 4 4 3 3 3 2 3 3 3 2 3 3 3 3 3 3 3 3 4 4 4 4 4 5 6 5 4 4 4 4 4 4
2 1 1 2 3 3 3 4 4 4 4 4 3 3 2 3 2 2 3 3 3 3 4 3 3 3 3 3 4 4 4 4 5 5 5 5 4 5 4 4 5 4 5
1 1 2 2 3 3 3 3 3 4 3 3 3 3 2 3 3 3 2 2 3 3 3 3 3 4 4 4 4 4 4 4 5 5 5 5 5 5 4 4 4 4 4
2 2 1 1 2 3 3 3 3 3 3 3 4 3 3 3 3 3 3 3 3 2 3 3 4 4 3 3 3 3 4 4 4 4 4 5 6 6 5 4 5 4 4
1 1 1 1 1 1 2 3 3 3 3 3 3 4 3 3 3 3 2 2 2 3 3 2 2 2 3 3 4 4 4 4 3 3 4 4 6 7 6 5 5 5 4
2 1 1 1 2 2 2 3 3 3 3 4 4 3 2 3 3 3 2 2 2 2 2 2 3 3 3 4 5 4 4 4 4 4 3 4 5 6 7 7 7 7 6
2 2 2 2 2 2 2 3 3 2 2 2 3 3 3 3 3 3 2 2 2 2 2 3 2 3 4 4 5 5 3 4 4 4 3 3 3 4 4 5 6 7 9
1 1 1 1 1 1 1 2 2 2 2 2 3 3 3 3 3 2 3 3 2 2 3 3 3 3 3 3 3 3 3 3 3 4 4 4 4 4 4 4 4 5 6
1 1 1 1 0 1 1 2 2 1 2 2 3 3 3 3 3 3 3 3 2 2 3 2 2 3 3 3 3 2 1 2 3 3 4 5 5 5 5 3 4 5 5
1 1 1 1 0 1 1 2 1 1 2 3 3 3 3 3 3 3 3 2 2 3 2 2 2 2 3 3 3 2 2 2 3 3 3 5 5 6 5 4 5 6 6
0 1 2 1 1 1 1 1 1 2 3 2 2 2 2 3 3 3 2 2 2 1 2 2 2 2 3 3 4 3 2 3 3 3 3 3 5 6 7 6 6 8 7
1 1 1 0 0 1 2 0 2 2 2 1 1 2 2 2 2 1 1 1 2 2 2 2 2 2 2 3 4 5 5 4 4 4 4 4 6 7 7 6 8 9 7
1 1 1 0 1 1 1 1 2 2 1 1 1 2 2 1 1 1 2 1 1 2 2 2 3 3 2 3 4 5 5 6 4 4 5 6 7 6 5 7 8 6 4
1 1 2 1 1 1 1 1 1 1 1 1 2 1 1 2 1 1 1 1 2 2 3 3 3 3 3 2 2 2 3 3 4 3 4 4 5 5 5 5 4 4 4
1 1 1 1 1 1 1 2 1 1 1 1 1 2 1 1 2 1 1 2 3 4 4 3 3 3 4 4 4 3 3 3 3 2 1 2 2 2 3 3 3 3 3
1 1 1 1 1 0 1 2 1 1 1 0 1 1 1 1 1 1 2 2 3 4 5 6 5 4 6 6 5 5 5 5 4 2 2 3 3 4 4 4 4 4 4
Wind_Direction
220 200 189 183 174 176 180 183 179 175 165 167 173 178 192 194 200 205 199 190 192 191 188 197 190 186 189 194 185 170 172 184 157 132 334 321 270 246 240 238 235 239 233
216 201 189 186 187 189 190 189 186 181 179 181 183 180 172 186 201 208 202 195 194 193 194 192 193 190 185 183 182 167 158 175 164 150 131 318 318 286 246 230 227 242 239
211 204 193 194 191 195 195 197 194 187 183 170 144 119 101 86 159 200 208 207 200 200 198 196 191 190 186 192 193 182 172 178 186 172 160 170 223 281 284 246 240 239 235
207 201 194 194 195 200 195 195 191 184 177 162 164 167 178 192 205 201 205 214 207 205 202 196 193 190 190 194 200 192 180 168 185 195 206 188 168 180 277 291 258 247 241
202 198 197 198 196 189 185 188 181 177 174 175 178 179 186 195 181 175 190 205 214 212 208 200 194 192 192 197 197 187 187 186 187 185 177 184 183 190 198 261 286 282 254
205 199 195 185 186 181 181 178 174 178 176 177 179 184 187 182 176 187 195 204 214 224 219 202 195 193 192 197 201 197 196 199 195 192 185 177 179 189 192 224 253 268 273
190 184 181 188 185 183 185 179 176 183 179 176 183 189 189 183 190 197 196 196 200 216 223 209 203 203 204 204 200 197 208 207 202 201 203 202 204 179 180 196 225 248 276
191 186 191 192 188 187 182 178 181 184 177 178 186 185 181 182 191 198 199 204 210 217 212 205 211 214 210 210 202 205 212 211 208 211 206 207 215 201 191 190 188 227 261
202 197 196 191 186 185 185 184 182 180 179 181 180 181 181 183 194 200 196 207 214 215 208 206 211 214 210 211 201 210 215 210 213 215 214 214 216 211 211 204 195 195 231
212 210 204 197 191 189 183 174 171 178 177 174 181 184 186 190 196 192 199 204 208 200 197 211 210 212 209 205 198 205 213 214 223 220 219 221 222 215 212 210 210 208 211
206 208 212 199 186 170 158 161 165 169 171 177 177 173 182 177 175 190 205 206 207 201 203 214 216 219 225 218 206 215 211 219 229 226 223 229 221 216 214 207 205 209 204
187 192 179 157 152 153 155 170 174 179 182 174 166 172 169 158 169 197 207 200 213 218 214 213 218 225 229 225 215 220 219 221 228 230 226 233 224 221 217 210 213 214 209
131 89 86 125 147 153 163 175 183 188 179 166 166 167 174 174 189 208 211 202 210 224 222 213 220 230 228 226 222 218 221 223 226 226 225 231 224 227 221 216 218 218 214
123 100 103 118 153 160 168 183 197 191 175 167 169 180 196 202 206 208 205 203 202 206 221 220 221 224 223 225 219 220 221 223 230 234 233 232 225 224 220 220 220 217 215
97 127 143 131 130 154 162 179 197 190 176 172 185 203 201 201 202 204 206 202 203 215 219 219 228 226 222 225 220 222 224 226 233 239 239 236 231 223 217 218 214 209 213
175 174 164 174 196 198 191 181 189 194 178 185 204 208 196 199 208 209 205 201 217 232 226 227 228 236 244 241 231 225 222 220 224 234 243 245 238 235 229 227 216 205 208
178 186 200 203 207 213 203 189 187 181 178 198 208 202 201 207 216 210 200 214 223 226 236 237 236 250 261 258 247 235 219 219 222 223 230 243 245 233 231 236 235 228 223
180 187 196 218 242 234 209 177 161 167 181 207 217 210 202 213 219 210 224 231 222 221 230 234 238 247 267 268 253 239 215 220 228 229 227 231 246 243 230 233 241 242 236
214 204 184 191 233 219 195 152 148 173 210 223 227 223 208 213 217 225 233 233 221 231 233 234 229 233 265 264 253 230 213 230 245 242 233 227 237 243 228 223 240 253 256
111 133 123 94 95 275 159 141 160 192 239 234 230 229 216 209 219 231 232 228 217 233 241 242 236 233 254 261 257 225 207 235 257 260 250 237 237 243 228 219 230 245 252
113 124 124 136 206 203 119 144 193 252 261 249 234 231 224 221 225 235 228 210 215 227 237 247 260 251 252 258 254 228 204 222 241 253 256 249 242 245 242 230 229 236 241
78 112 118 130 278 115 122 141 282 279 304 317 272 257 243 239 238 227 236 207 196 212 245 260 279 270 256 247 255 242 226 221 223 242 250 248 246 249 248 240 238 239 237
57 92 125 103 359 68 123 191 283 312 355 356 319 300 293 272 243 214 224 227 215 220 244 247 263 279 279 265 255 253 243 234 231 247 250 251 251 255 254 247 244 237 228
9 79 107 105 344 9 42 257 295 347 31 344 310 314 322 322 316 253 208 208 231 241 247 250 258 272 277 276 273 261 255 246 244 259 268 262 253 249 250 257 247 228 221
351 101 133 195 261 336 320 305 329 55 41 343 313 318 325 322 316 301 259 241 241 228 228 240 243 249 264 260 256 249 251 244 241 248 266 260 260 259 258 257 256 243 230
16 80 174 222 258 316 307 313 350 103 150 286 289 288 302 302 293 302 320 296 259 263 245 238 239 249 250 263 264 262 259 246 219 192 237 255 258 256 254 254 256 249 241